Location: D�rnast
(49.6426°N, 11.9755°E)
Time: 08:44:12
(UTC+00:00)

N. Korean satellite - Pass Details

Date: 03 December 2021
Orbit: 446 x 491 km, 97.3° (Epoch: 18 January)

Event Time Altitude Azimuth Distance (km) Brightness Sun altitude
Rises 05:11:32 0° 5° (N) 2,477 10.0 -15.2°
Reaches altitude 10° 05:13:41 10° 356° (N) 1,594 9.0 -14.8°
Maximum altitude 05:16:48 33° 290° (WNW) 774 7.0 -14.4°
Drops below altitude 10° 05:19:51 10° 225° (SW) 1,573 8.9 -13.9°
Sets 05:21:57 0° 216° (SW) 2,428 9.9 -13.6°
